Plato — 8PRX — position and weather

sailwx.info

Track history (hours):
 
Tides and Currents Weather Stations Pressure Air Temp Water Temp Dewpoint Dewpoint Depression Visibility Wind Speed Wind Dir Waves Ship Positions

Plato

Last reported at 2014-Oct-20 03:31 UTC. Time now 2014-Oct-21 21:35 UTC.
Position N 54°30' E 010°22'.

Length 88 m; draft 4.8 m.

Type: Ship. MMSI: 314189000.

Date/timePositionNaut miles runAvg speedWind from/ knotsBaromVisibWave heightAir tempDewpointWater temp
2014-Oct-20 03:31N 54°30' E 010°22'9 9.0
2014-Oct-20 02:33N 54°24' E 010°12'3 3.1
2014-Oct-20 01:34N 54°22' E 010°07'5 5.0
2014-Oct-20 00:34N 54°21' E 009°59'8 8.0
2014-Oct-19 23:33N 54°21' E 009°45'30 7.5
2014-Oct-19 19:29N 53°57' E 009°14'4 4.6
2014-Oct-19 18:33N 53°54' E 009°09'2 1.9
2014-Oct-19 17:34N 53°53' E 009°05'4 4.0
2014-Oct-19 16:33N 53°51' E 008°60'8 7.8
2014-Oct-19 15:33N 53°51' E 008°46'7 6.7
2014-Oct-19 14:33N 53°56' E 008°39'8 8.3
2014-Oct-19 13:33N 53°59' E 008°26'9 9.4
2014-Oct-19 12:33N 53°60' E 008°10'10 8.7
2014-Oct-19 11:22N 53°57' E 007°53'75 9.6
2014-Oct-19 03:33N 53°38' E 005°50'1010.5
2014-Oct-19 02:34N 53°35' E 005°33'1110.7
2014-Oct-19 01:33N 53°31' E 005°16'1110.7
2014-Oct-19 00:33N 53°28' E 004°59'149 9.3
2014-Oct-18 08:32N 51°34' E 002°22'1010.3
2014-Oct-18 07:34N 51°27' E 002°11'10 9.9
2014-Oct-18 06:33N 51°17' E 002°06'9 9.1
2014-Oct-18 05:33N 51°11' E 001°56'9 8.8
2014-Oct-18 04:33N 51°05' E 001°45'9 8.5
2014-Oct-18 03:34N 50°60' E 001°35'  
2014-Oct-15 13:30N 46°24' W 002°12'8 8.1
2014-Oct-15 12:32N 46°19' W 002°03'8 8.4
2014-Oct-15 11:33N 46°14' W 001°53'15 0.4
2014-Oct-13 20:19N 46°07' W 001°35'8 8.6
2014-Oct-13 19:24N 46°10' W 001°46'7 8.9
2014-Oct-13 18:33N 46°16' W 001°53'9 8.8
2014-Oct-13 17:34N 46°22' W 002°02'9 8.9
2014-Oct-13 16:32N 46°29' W 002°11'  
Track history (hours):
 
Tides and Currents Weather Stations Pressure Air Temp Water Temp Dewpoint Dewpoint Depression Visibility Wind Speed Wind Dir Waves Ship Positions

Plato

Last reported at 2014-Oct-20 03:31 UTC. Time now 2014-Oct-21 21:35 UTC.
Position N 54°30' E 010°22'.

Length 88 m; draft 4.8 m.

Type: Ship. MMSI: 314189000.

Date/timePositionNaut miles runAvg speedWind from/ knotsBaromVisibWave heightAir tempDewpointWater temp
2014-Oct-20 03:31N 54°30' E 010°22'9 9.0
2014-Oct-20 02:33N 54°24' E 010°12'3 3.1
2014-Oct-20 01:34N 54°22' E 010°07'5 5.0
2014-Oct-20 00:34N 54°21' E 009°59'8 8.0
2014-Oct-19 23:33N 54°21' E 009°45'30 7.5
2014-Oct-19 19:29N 53°57' E 009°14'4 4.6
2014-Oct-19 18:33N 53°54' E 009°09'2 1.9
2014-Oct-19 17:34N 53°53' E 009°05'4 4.0
2014-Oct-19 16:33N 53°51' E 008°60'8 7.8
2014-Oct-19 15:33N 53°51' E 008°46'7 6.7
2014-Oct-19 14:33N 53°56' E 008°39'8 8.3
2014-Oct-19 13:33N 53°59' E 008°26'9 9.4
2014-Oct-19 12:33N 53°60' E 008°10'10 8.7
2014-Oct-19 11:22N 53°57' E 007°53'75 9.6
2014-Oct-19 03:33N 53°38' E 005°50'1010.5
2014-Oct-19 02:34N 53°35' E 005°33'1110.7
2014-Oct-19 01:33N 53°31' E 005°16'1110.7
2014-Oct-19 00:33N 53°28' E 004°59'149 9.3
2014-Oct-18 08:32N 51°34' E 002°22'1010.3
2014-Oct-18 07:34N 51°27' E 002°11'10 9.9
2014-Oct-18 06:33N 51°17' E 002°06'9 9.1
2014-Oct-18 05:33N 51°11' E 001°56'9 8.8
2014-Oct-18 04:33N 51°05' E 001°45'9 8.5
2014-Oct-18 03:34N 50°60' E 001°35'  
2014-Oct-15 13:30N 46°24' W 002°12'8 8.1
2014-Oct-15 12:32N 46°19' W 002°03'8 8.4
2014-Oct-15 11:33N 46°14' W 001°53'15 0.4
2014-Oct-13 20:19N 46°07' W 001°35'8 8.6
2014-Oct-13 19:24N 46°10' W 001°46'7 8.9
2014-Oct-13 18:33N 46°16' W 001°53'9 8.8
2014-Oct-13 17:34N 46°22' W 002°02'9 8.9
2014-Oct-13 16:32N 46°29' W 002°11'  

Dump ship's entire track history